Погода в Кумыше

Россия / Карачаево-Черкесская Республика     43°52′52″N   41°53′46″E
темп.,
°C
ветер,
м/с
пор.,
м/с
влажн.,
%
обл.,
%
осадки,
мм/ч
давл.,
гПа
погр.,
м
25 мая, ср
ср2500:00+5зсз1196100 2.3 101774
03:00+4ююз119486 2.4 101822
06:00+6юз2394100 0.2 1019106
09:00+8зюз127929 0.7 1020653
12:00+12сз446599 0.4 10191549
15:00+11зсз2465100 0.6 10201308
18:00+10сз1172100 0.2 1021186
21:00+8ссз0077100 0.3 102310
26 мая, чт
чт2600:00+6ю228514 0.0 102317
03:00+5ю32855 0.0 102323
06:00+6ю237912 0.0 102362
09:00+12ссз216515 0.0 1022933
12:00+12св226622 0.1 1021851
15:00+14ссв326287 0.1 10201072
18:00+14всв227113 0.0 1019653
21:00+9ююв228522 0.0 102011
27 мая, пт
пт2700:00+7ю338857 0.0 102029
03:00+7ю3282100 0.0 102024
06:00+9ююз337364 0.0 102061
09:00+14ссз21574 0.0 1019575
12:00+17с32612 0.0 10191106
15:00+17с435926 0.0 10191198
18:00+15с337481 0.0 1019597
21:00+12всв118053 0.0 102120
28 мая, сб
сб2800:00+9ююв22885 0.0 102011
03:00+8ююв22890 0.0 101914
06:00+11ю22840 0.0 101850
09:00+16ссв21710 0.0 1016573
12:00+20ссв32630 0.0 1014913
15:00+21ссв43626 0.0 10141129
18:00+19св33787 0.0 1014444
21:00+13ююв22900 0.1 101513
29 мая, вс
вс2900:00+13ю32900 0.0 101423
03:00+12ю32780 0.0 101419
06:00+13ю33680 0.0 101537
09:00+20з11480 0.0 1014371
12:00+23ссв33550 0.0 10141029
15:00+23св445830 0.1 10151596
18:00+20св237397 0.3 101589
21:00+14ююв22776 0.3 101713